Location: Cabo di Oristano
(39.8500°N, 8.4333°E)
Time: 18:16:40
(UTC+00:00)

Timation 1 Rocket - Pass Details

Date: 31 January 2023
Orbit: 896 x 910 km, 70.0° (Epoch: 01 April)

Event Time Altitude Azimuth Distance (km) Brightness Sun altitude
Rises 05:11:33 0° 205° (SSW) 3,498 7.2 -16.4°
Reaches altitude 10° 05:14:01 10° 206° (SSW) 2,563 6.5 -15.9°
Maximum altitude 05:19:57 82° 294° (WNW) 913 4.3 -14.8°
Drops below altitude 10° 05:25:57 10° 23° (NNE) 2,588 6.9 -13.6°
Sets 05:28:28 0° 24° (NNE) 3,535 7.6 -13.2°
